SCP
0 0 0 0 0 0 0 0 0 0 0 0 0 0 0 0 0 0 0 0 0 0 0 0 0 0 0 0 0 0 0 0 0 0 0 0 0 0 0 0 0 0 0 0 0 0 0
0 0 0 0 0 0 0 0 0 0 0 0 0 0 0 0 0 0 0 0 0 0 0 0 0 0 0 0 0 0 0 0 0 0 0 0 0 0 0 0 0 0 0 0 0 0 0
0 0 0 0 0 0 0 0 0 0 0 0 0 0 0 0 0 0 0 0 0 0 0 0 0 0 0 0 0 0 0 0 0 0 0 0 0 0 0 0 0 0 0 0 0 0 0
0 0 0 0 0 0 0 0 0 0 0 0 0 0 0 0 0 0 0 0 0 0 0 0 0 0 0 0 0 0 0 0 0 0 0 0 0 0 0 0 0 0 0 0 0 0 0
0 0 0 0 0 0 0 0 0 0 0 0 0 0 0 0 0 0 0 0 0 0 0 0 0 0 0 0 0 0 0 0 0 0 0 0 0 0 0 0 0 0 0 0 0 0 0
0 0 0 0 0 0 0 0 0 0 0 0 0 0 0 0 0 0 0 0 0 0 0 0 0 0 0 0 0 0 0 0 0 0 0 0 0 0 0 0 0 0 0 0 0 0 0
-0 0 0 0 0 0 0 0 0 0 0 0 0 0 0 0 0 0 0 0 0 0 0 0 0 0 0 0 0 0 0 0 0 0 0 0 0 0 0 0 0 0 0 0 0 0 0
0 0 0 0 0 0 0 0 0 0 0 0 0 0 0 0 0 0 0 0 0 0 0 0 0 0 0 0 0 0 0 0 0 0 0 0 0 0 0 0 0 0 0 0 0 0 0
0 0 0 0 0 0 0 0 0 0 0 0 0 0 0 0 0 0 0 0 0 0 0 0 0 0 0 0 0 0 0 0 0 0 0 0 0 0 0 0 0 0 0 0 0 0 0
0 0 0 0 0 0 0 0 0 0 0 0 0 0 0 0 0 0 0 0 0 0 0 0 0 0 0 0 0 0 0 0 0 0 0 0 0 0 0 0 0 0 0 0 0 0 0
0 0 0 0 0 0 0 0 0 0 0 0 0 0 0 0 0 0 0 0 0 0 0 0 0 0 0 0 0 0 0 0 0 0 0 0 0 0 0 0 0 0 0 0 0 0 0
0 0 0 0 0 0 0 0 0 0 0 0 0 0 0 0 0 0 0 0 0 0 0 0 0 0 0 0 0 0 0 0 0 0 0 0 0 0 0 0 0 0 0 0 0 0 0
0 0 0 0 0 0 0 0 0 0 0 0 0 0 0 0 0 0 0 0 0 0 0 0 0 0 0 0 0 0 0 0 0 0 0 0 0 0 0 0 0 0 0 0 0 0 0
0 0 0 0 0 0 0 0 0 0 0 0 0 0 0 0 0 0 0 0 0 0 0 0 0 0 0 0 0 0 0 0 0 0 0 0 0 0 0 0 0 0 0 0 0 0 0
0 0 0 0 0 0 0 0 0 0 0 0 0 0 0 0 0 0 0 0 0 0 0 0 0 0 0 0 0 0 0 0 0 0 0 0 0 0 0 0 0 0 0 0 0 0 0
0 0 0 0 0 0 0 0 0 0 0 0 0 0 0 0 0 0 0 0 0 0 0 0 0 0 0 0 0 0 0 0 0 0 0 0 0 0 0 0 0 0 0 0 0 0 0
0 0 0 0 0 0 0 0 0 0 0 0 0 0 0 0 0 0 0 0 0 0 0 0 0 0 0 0 0 0 0 0 0 0 0 0 0 0 0 0 0 0 0 0 0 0 0
0 0 0 0 0 0 0 0 0 0 0 0 0 0 0 0 0 0 0 0 0 0 0 0 0 0 0 0 0 0 0 0 0 0 0 0 0 0 0 0 0 0 0 0 0 0 0
0 0 0 0 0 0 0 0 0 0 0 0 0 0 0 0 0 0 0 0 0 0 0 0 0 0 0 0 0 0 0 0 0 0 0 0 0 0 0 0 0 0 0 0 0 0 0
0 0 0 0 0 -0 -0 0 0 0 0 0 0 0 0 0 0 0 0 0 0 0 0 0 0 0 0 0 0 0 0 0 0 0 0 0 0 0 0 0 0 0 0 0 0 0 0
0 0 0 0 0 0 -0 0 0 0 0 0 0 0 0 0 0 0 0 0 0 0 0 0 0 0 0 0 0 0 0 0 0 0 0 0 0 0 0 0 0 0 0 0 0 0 0
0 0 0 0 0 0 0 0 0 0 0 0 0 0 0 0 0 0 0 0 0 0 0 0 0 0 0 0 0 0 0 0 0 0 0 0 0 0 0 0 0 0 0 0 0 0 0
0 0 0 0 0 0 0 0 0 0 0 0 0 0 0 0 0 0 0 0 0 0 0 0 0 0 0 0 0 0 0 0 0 0 0 0 0 0 0 0 0 0 0 0 0 0 0
0 0 0 0 0 0 0 0 0 0 0 0 0 0 0 0 0 0 0 0 0 0 0 0 0 0 0 0 0 0 0 0 0 0 0 0 0 0 0 0 0 0 0 0 0 0 0
0 0 0 0 0 0 0 0 0 0 0 0 0 0 0 0 0 0 0 0 0 0 0 0 0 0 0 0 0 0 0 0 0 0 0 0 0 0 0 0 0 0 0 0 0 0 0
0 0 0 0 0 0 0 0 0 0 0 0 0 0 0 0 0 0 0 0 0 0 0 0 0 0 0 0 0 0 0 0 0 0 0 0 0 0 0 0 0 0 0 0 0 0 0
-0 -0 -0 0 0 0 0 0 0 0 0 0 0 0 0 0 0 0 0 0 0 0 0 0 0 0 0 0 0 0 0 0 0 0 0 0 0 0 0 0 0 0 0 0 0 0 0
0 0 0 0 0 0 0 0 0 0 0 0 0 0 0 0 0 0 0 0 0 0 0 0 0 0 0 0 0 0 0 0 0 0 0 0 0 0 0 0 0 0 0 0 0 0 0
0 0 0 0 0 0 0 0 0 0 0 0 0 0 0 0 0 0 0 0 0 0 0 0 0 0 0 0 0 0 0 0 0 0 0 0 0 0 0 0 0 0 0 0 0 0 0
Wind_Speed_500mb
102 93 88 84 78 74 72 69 67 64 62 57 56 52 48 44 39 33 33 27 23 24 24 24 25 27 26 11 20 21 27 31 35 27 19 15 18 13 9 8 9 10 9 11 13 25 19
69 104 101 89 85 78 75 71 71 69 65 61 59 56 50 46 42 34 34 29 25 25 24 24 26 26 24 11 14 17 14 17 20 17 23 20 11 14 7 7 10 5 4 12 16 25 23
67 65 105 96 90 86 78 74 72 72 69 65 62 58 53 49 43 35 33 27 25 26 23 26 28 28 32 43 33 38 33 29 20 16 13 21 14 12 12 5 9 2 11 14 21 17 11
79 64 74 107 95 91 85 79 75 74 73 67 65 60 57 51 45 37 33 28 24 26 24 29 27 26 24 29 35 38 35 34 31 34 29 20 20 13 9 6 6 4 4 10 1 9 2
101 75 69 93 92 95 92 85 78 73 73 70 67 62 58 55 43 39 34 26 24 25 25 24 23 16 24 15 4 1 2 4 11 26 27 20 20 10 11 9 4 2 10 9 11 1 3
103 98 78 71 101 93 95 90 83 77 72 72 69 64 63 54 47 39 31 25 26 24 27 22 26 12 24 20 12 9 3 8 5 20 21 15 8 6 5 11 14 9 8 7 15 2 14
92 105 95 95 67 95 91 90 86 83 74 71 72 67 62 57 47 41 35 21 16 13 34 24 13 12 11 13 8 7 12 13 18 19 11 11 12 26 26 15 16 9 8 19 25 22 20
92 100 107 91 102 77 89 84 89 87 77 71 72 68 64 58 51 45 39 26 17 5 14 32 48 53 50 29 17 23 24 16 14 11 14 8 24 21 10 17 14 13 17 24 19 21 13
90 97 108 96 81 100 81 83 84 88 86 75 69 70 66 60 54 51 49 44 18 11 8 17 45 48 50 49 32 39 33 19 8 14 20 17 8 13 19 14 14 13 17 17 19 19 20
101 93 102 111 89 89 89 86 82 89 88 80 68 73 71 64 52 56 53 39 17 4 7 10 14 14 24 21 12 37 53 35 9 24 15 13 9 13 12 11 18 14 21 23 25 8 9
103 101 95 105 102 81 98 86 85 88 88 84 74 76 78 77 43 63 44 31 29 11 9 8 9 13 22 22 8 2 35 37 27 15 13 12 14 12 17 21 18 14 12 14 9 10 7
110 102 97 95 108 99 88 97 89 85 85 93 84 84 81 76 50 39 46 49 39 6 19 8 13 13 14 11 6 14 12 14 18 10 1 8 3 11 14 7 13 9 7 6 5 3 14
111 105 100 97 104 108 95 91 92 91 91 94 89 84 87 85 73 44 49 56 5 11 1 12 10 13 12 11 7 11 23 15 15 16 19 9 12 7 8 9 2 7 9 4 6 7 10
108 104 99 97 98 105 100 83 103 95 100 103 94 81 85 85 71 65 63 8 15 14 15 7 9 11 13 12 8 10 23 15 8 6 10 17 8 16 8 15 12 16 13 9 11 7 4
110 103 100 96 96 98 104 80 98 98 119 107 95 89 92 92 77 77 57 13 16 13 10 17 8 8 11 8 10 8 15 12 14 14 8 9 5 2 5 5 6 10 8 3 1 3 6
107 102 100 94 96 99 105 69 89 97 109 109 107 100 93 101 89 92 23 21 14 13 7 6 28 15 25 18 16 16 21 4 9 7 2 12 8 4 1 8 13 4 15 7 2 7 13
108 100 98 95 98 103 97 78 77 92 119 111 90 50 71 99 101 63 20 19 19 20 14 12 20 11 9 12 14 12 14 2 4 5 8 10 3 5 3 9 15 7 7 6 4 6 7
108 100 96 91 93 97 101 82 69 107 123 128 69 8 52 106 20 10 22 17 16 29 12 4 6 11 12 9 7 7 12 5 3 7 14 2 7 8 4 6 10 4 7 10 8 10 6
105 96 93 87 89 84 94 91 54 120 125 96 45 17 69 84 21 17 9 10 10 17 21 19 14 9 0 9 7 5 8 2 5 6 13 13 5 7 3 4 4 3 5 8 9 4 16
94 89 85 80 80 70 80 97 62 127 130 102 28 9 7 33 16 25 23 16 12 7 9 13 11 14 15 13 6 16 11 5 6 10 17 9 7 7 13 5 8 10 13 13 8 4 16
82 80 78 76 72 66 67 77 66 103 137 85 17 10 24 23 14 20 32 23 21 14 4 18 5 10 21 10 10 7 7 7 10 8 10 4 7 7 8 10 8 10 13 14 15 17 18
71 70 71 72 68 71 67 67 77 119 127 50 22 18 25 20 38 23 32 24 34 14 18 17 8 24 18 11 6 19 16 10 8 6 5 2 8 5 1 9 9 18 16 17 20 28 35
64 65 63 61 62 62 63 56 52 124 124 22 19 43 43 31 24 24 19 21 26 31 5 22 28 16 14 14 14 11 11 15 13 14 7 8 11 6 4 8 5 19 20 18 12 10 19
58 62 58 51 54 58 61 69 112 103 105 49 50 47 15 11 24 32 30 12 32 24 18 31 36 15 16 36 49 40 36 25 17 13 8 12 11 5 7 5 9 7 1 8 17 21 23
56 53 53 45 55 74 86 110 109 107 78 55 73 25 15 10 15 19 33 23 34 36 19 22 15 23 70 27 9 9 5 6 10 14 4 2 8 6 8 9 14 9 9 6 13 31 20
45 48 62 79 80 92 95 102 84 61 60 61 43 40 25 15 7 42 23 42 23 12 8 12 28 73 32 7 6 10 9 10 11 8 12 10 8 6 6 6 11 4 7 13 13 18 12
89 103 97 98 92 84 75 74 63 59 51 50 40 41 29 18 24 50 10 25 31 18 13 17 32 16 24 5 5 5 7 7 16 19 11 10 5 11 8 8 12 16 5 9 5 6 33
102 106 102 93 88 78 66 66 67 59 47 48 52 48 31 19 29 28 51 29 33 23 14 32 19 3 5 6 7 7 6 10 8 13 13 12 13 8 6 6 16 10 6 5 15 25 32
102 96 89 82 77 72 66 62 58 49 34 45 52 42 74 43 48 58 38 34 27 34 63 24 9 11 11 8 4 7 5 6 11 9 3 10 10 10 17 10 4 13 8 20 34 25 33
Wind_Direction_500mb
246 241 239 240 240 238 235 233 231 230 229 230 234 232 230 234 241 246 253 262 269 275 281 287 293 304 317 309 268 260 249 253 270 268 232 212 187 168 186 188 155 221 236 210 212 274 266
241 246 238 237 238 238 236 233 232 232 230 228 229 231 232 234 238 239 250 258 266 272 277 282 289 299 306 284 265 271 261 257 248 232 210 207 216 198 169 163 198 173 245 277 265 260 261
236 241 248 241 237 236 235 234 232 231 231 228 229 229 232 233 236 238 244 252 259 268 272 278 286 293 287 268 272 271 263 246 236 226 239 206 209 208 156 162 236 330 294 292 249 254 227
244 241 244 244 238 236 233 233 231 230 228 228 228 229 231 233 233 235 242 246 255 263 270 275 280 292 269 277 270 270 267 264 253 239 243 222 211 224 190 164 55 239 228 289 157 187 176
242 243 237 246 240 237 231 230 231 231 228 225 226 227 228 230 229 232 237 241 248 261 266 268 277 279 267 265 204 340 286 235 241 237 205 213 220 202 148 158 281 38 261 247 297 16 116
248 241 238 237 243 240 234 228 228 228 228 226 224 223 225 226 225 226 226 233 244 259 260 260 250 275 252 245 237 257 166 136 108 160 162 185 182 193 165 188 241 185 210 242 264 53 281
243 246 241 237 239 243 238 230 227 227 226 225 223 220 221 223 220 219 217 214 248 244 225 209 200 212 179 160 165 202 169 142 136 150 149 175 199 221 223 209 229 249 256 271 275 278 296
246 240 234 234 239 240 239 235 235 223 222 224 220 217 217 216 214 211 208 195 202 213 288 249 243 251 245 229 239 226 193 183 171 175 135 144 222 223 191 206 213 236 266 271 281 279 292
246 244 236 231 230 233 238 235 234 232 218 219 218 215 213 209 207 207 212 211 225 269 265 263 234 240 246 235 232 232 203 196 171 171 192 195 193 187 184 178 188 214 231 251 266 307 284
243 241 238 229 228 229 227 237 238 234 217 214 214 212 208 200 200 208 213 200 190 200 276 246 216 235 202 201 252 241 220 201 191 204 164 225 214 175 172 198 193 226 218 239 263 266 269
242 240 238 230 227 226 228 229 234 238 224 206 206 211 208 205 196 200 214 182 182 144 274 154 162 168 166 177 143 161 195 200 194 166 165 209 172 179 212 230 186 248 196 207 224 229 282
240 239 236 235 228 223 226 225 233 233 233 207 201 207 206 200 194 203 194 179 149 128 240 176 140 165 152 220 180 119 153 175 180 137 109 210 178 168 189 146 174 135 126 70 60 224 252
238 237 234 233 232 226 224 223 224 230 239 205 201 203 205 199 190 174 175 148 139 207 168 174 178 166 188 175 180 159 167 167 158 176 219 199 214 189 160 127 107 133 139 243 232 202 256
233 233 232 230 230 228 223 224 222 224 234 201 197 199 203 204 191 183 169 108 208 187 203 153 136 134 182 155 211 166 157 178 212 130 138 180 204 170 169 203 177 179 184 185 234 217 263
228 229 230 227 226 224 219 227 219 223 228 199 192 196 197 200 184 180 161 199 214 178 194 149 103 151 201 197 165 155 183 191 186 185 171 153 181 101 67 116 156 163 187 105 104 125 277
224 223 226 224 222 222 217 220 217 218 224 196 193 188 193 196 182 173 180 214 226 192 164 155 187 194 187 189 165 179 182 168 157 209 182 186 132 347 67 114 50 159 141 135 71 247 258
219 220 221 221 219 223 222 218 216 223 215 193 173 169 187 191 176 178 197 206 196 211 173 169 194 161 188 183 186 168 169 84 156 124 134 135 119 163 161 206 175 150 148 83 191 192 246
214 215 216 217 216 222 220 211 213 212 209 187 168 128 171 179 170 193 205 175 169 180 170 100 132 132 162 159 138 131 154 134 325 182 144 138 118 153 156 38 8 77 164 165 197 207 249
208 209 212 213 214 220 221 215 205 205 207 168 141 112 161 174 177 186 154 147 167 159 177 156 165 152 165 146 146 182 131 28 46 112 150 172 118 124 76 22 17 161 136 109 96 114 222
202 203 204 208 212 216 223 206 217 203 201 175 139 114 143 193 162 170 167 171 139 17 128 109 122 111 143 166 159 169 145 31 26 89 65 91 150 199 236 135 140 175 172 167 154 212 287
192 196 200 204 209 210 215 220 216 207 199 180 151 153 166 182 194 186 170 152 168 166 159 136 93 210 158 142 154 156 105 121 46 40 49 117 208 165 119 134 182 217 221 211 212 231 234
184 192 194 202 206 211 206 205 204 197 196 182 126 148 166 176 154 164 173 184 174 148 157 178 165 171 167 144 192 174 139 167 155 79 87 104 145 107 168 210 247 265 244 225 234 246 257
184 189 195 199 203 212 216 208 220 189 186 165 142 134 134 155 156 164 190 163 172 137 80 147 147 131 136 134 97 111 159 176 170 155 138 140 132 114 210 131 325 275 240 206 210 222 263
184 189 191 196 199 202 197 203 191 189 187 193 149 137 111 156 170 185 154 138 145 170 129 141 140 125 134 124 110 101 85 84 81 57 74 137 120 104 148 154 244 90 23 216 236 257 254
184 188 190 195 185 187 179 176 184 186 187 184 159 157 120 115 142 123 136 118 110 111 115 138 144 148 145 128 90 95 44 78 54 36 285 97 124 129 174 205 323 275 188 156 266 287 285
189 185 182 173 175 170 168 175 174 176 177 168 145 154 114 114 200 144 126 142 131 124 106 125 150 154 153 95 107 154 171 154 162 135 54 116 89 132 148 178 239 173 197 160 147 276 78
143 144 145 151 148 147 148 154 154 150 148 160 135 133 134 108 135 139 122 149 143 126 111 138 148 140 131 113 120 136 158 159 165 164 161 125 88 183 172 213 273 258 141 162 222 315 321
116 120 121 123 124 126 123 122 128 124 119 124 131 140 132 100 112 137 141 139 143 140 139 163 128 160 118 112 140 155 149 181 147 152 167 158 155 179 135 194 249 190 166 258 317 314 318
91 90 95 108 110 103 105 112 125 125 122 154 112 127 128 106 113 119 129 140 158 158 135 161 141 129 145 108 123 118 140 160 151 186 135 183 186 180 199 207 199 194 272 297 311 312 311
Wind_Speed_850mb
102 93 88 84 78 74 72 69 67 64 62 57 56 52 48 44 39 33 33 27 23 24 24 24 25 27 26 11 20 21 27 31 35 27 19 15 18 13 9 8 9 10 9 11 13 25 19
69 104 101 89 85 78 75 71 71 69 65 61 59 56 50 46 42 34 34 29 25 25 24 24 26 26 24 11 14 17 14 17 20 17 23 20 11 14 7 7 10 5 4 12 16 25 23
67 65 105 96 90 86 78 74 72 72 69 65 62 58 53 49 43 35 33 27 25 26 23 26 28 28 32 43 33 38 33 29 20 16 13 21 14 12 12 5 9 2 11 14 21 17 11
79 64 74 107 95 91 85 79 75 74 73 67 65 60 57 51 45 37 33 28 24 26 24 29 27 26 24 29 35 38 35 34 31 34 29 20 20 13 9 6 6 4 4 10 1 9 2
101 75 69 93 92 95 92 85 78 73 73 70 67 62 58 55 43 39 34 26 24 25 25 24 23 16 24 15 4 1 2 4 11 26 27 20 20 10 11 9 4 2 10 9 11 1 3
103 98 78 71 101 93 95 90 83 77 72 72 69 64 63 54 47 39 31 25 26 24 27 22 26 12 24 20 12 9 3 8 5 20 21 15 8 6 5 11 14 9 8 7 15 2 14
92 105 95 95 67 95 91 90 86 83 74 71 72 67 62 57 47 41 35 21 16 13 34 24 13 12 11 13 8 7 12 13 18 19 11 11 12 26 26 15 16 9 8 19 25 22 20
92 100 107 91 102 77 89 84 89 87 77 71 72 68 64 58 51 45 39 26 17 5 14 32 48 53 50 29 17 23 24 16 14 11 14 8 24 21 10 17 14 13 17 24 19 21 13
90 97 108 96 81 100 81 83 84 88 86 75 69 70 66 60 54 51 49 44 18 11 8 17 45 48 50 49 32 39 33 19 8 14 20 17 8 13 19 14 14 13 17 17 19 19 20
101 93 102 111 89 89 89 86 82 89 88 80 68 73 71 64 52 56 53 39 17 4 7 10 14 14 24 21 12 37 53 35 9 24 15 13 9 13 12 11 18 14 21 23 25 8 9
103 101 95 105 102 81 98 86 85 88 88 84 74 76 78 77 43 63 44 31 29 11 9 8 9 13 22 22 8 2 35 37 27 15 13 12 14 12 17 21 18 14 12 14 9 10 7
110 102 97 95 108 99 88 97 89 85 85 93 84 84 81 76 50 39 46 49 39 6 19 8 13 13 14 11 6 14 12 14 18 10 1 8 3 11 14 7 13 9 7 6 5 3 14
111 105 100 97 104 108 95 91 92 91 91 94 89 84 87 85 73 44 49 56 5 11 1 12 10 13 12 11 7 11 23 15 15 16 19 9 12 7 8 9 2 7 9 4 6 7 10
108 104 99 97 98 105 100 83 103 95 100 103 94 81 85 85 71 65 63 8 15 14 15 7 9 11 13 12 8 10 23 15 8 6 10 17 8 16 8 15 12 16 13 9 11 7 4
110 103 100 96 96 98 104 80 98 98 119 107 95 89 92 92 77 77 57 13 16 13 10 17 8 8 11 8 10 8 15 12 14 14 8 9 5 2 5 5 6 10 8 3 1 3 6
107 102 100 94 96 99 105 69 89 97 109 109 107 100 93 101 89 92 23 21 14 13 7 6 28 15 25 18 16 16 21 4 9 7 2 12 8 4 1 8 13 4 15 7 2 7 13
108 100 98 95 98 103 97 78 77 92 119 111 90 50 71 99 101 63 20 19 19 20 14 12 20 11 9 12 14 12 14 2 4 5 8 10 3 5 3 9 15 7 7 6 4 6 7
108 100 96 91 93 97 101 82 69 107 123 128 69 8 52 106 20 10 22 17 16 29 12 4 6 11 12 9 7 7 12 5 3 7 14 2 7 8 4 6 10 4 7 10 8 10 6
105 96 93 87 89 84 94 91 54 120 125 96 45 17 69 84 21 17 9 10 10 17 21 19 14 9 0 9 7 5 8 2 5 6 13 13 5 7 3 4 4 3 5 8 9 4 16
94 89 85 80 80 70 80 97 62 127 130 102 28 9 7 33 16 25 23 16 12 7 9 13 11 14 15 13 6 16 11 5 6 10 17 9 7 7 13 5 8 10 13 13 8 4 16
82 80 78 76 72 66 67 77 66 103 137 85 17 10 24 23 14 20 32 23 21 14 4 18 5 10 21 10 10 7 7 7 10 8 10 4 7 7 8 10 8 10 13 14 15 17 18
71 70 71 72 68 71 67 67 77 119 127 50 22 18 25 20 38 23 32 24 34 14 18 17 8 24 18 11 6 19 16 10 8 6 5 2 8 5 1 9 9 18 16 17 20 28 35
64 65 63 61 62 62 63 56 52 124 124 22 19 43 43 31 24 24 19 21 26 31 5 22 28 16 14 14 14 11 11 15 13 14 7 8 11 6 4 8 5 19 20 18 12 10 19
58 62 58 51 54 58 61 69 112 103 105 49 50 47 15 11 24 32 30 12 32 24 18 31 36 15 16 36 49 40 36 25 17 13 8 12 11 5 7 5 9 7 1 8 17 21 23
56 53 53 45 55 74 86 110 109 107 78 55 73 25 15 10 15 19 33 23 34 36 19 22 15 23 70 27 9 9 5 6 10 14 4 2 8 6 8 9 14 9 9 6 13 31 20
45 48 62 79 80 92 95 102 84 61 60 61 43 40 25 15 7 42 23 42 23 12 8 12 28 73 32 7 6 10 9 10 11 8 12 10 8 6 6 6 11 4 7 13 13 18 12
89 103 97 98 92 84 75 74 63 59 51 50 40 41 29 18 24 50 10 25 31 18 13 17 32 16 24 5 5 5 7 7 16 19 11 10 5 11 8 8 12 16 5 9 5 6 33
102 106 102 93 88 78 66 66 67 59 47 48 52 48 31 19 29 28 51 29 33 23 14 32 19 3 5 6 7 7 6 10 8 13 13 12 13 8 6 6 16 10 6 5 15 25 32
102 96 89 82 77 72 66 62 58 49 34 45 52 42 74 43 48 58 38 34 27 34 63 24 9 11 11 8 4 7 5 6 11 9 3 10 10 10 17 10 4 13 8 20 34 25 33
Wind_Direction_850mb
246 241 239 240 240 238 235 233 231 230 229 230 234 232 230 234 241 246 253 262 269 275 281 287 293 304 317 309 268 260 249 253 270 268 232 212 187 168 186 188 155 221 236 210 212 274 266
241 246 238 237 238 238 236 233 232 232 230 228 229 231 232 234 238 239 250 258 266 272 277 282 289 299 306 284 265 271 261 257 248 232 210 207 216 198 169 163 198 173 245 277 265 260 261
236 241 248 241 237 236 235 234 232 231 231 228 229 229 232 233 236 238 244 252 259 268 272 278 286 293 287 268 272 271 263 246 236 226 239 206 209 208 156 162 236 330 294 292 249 254 227
244 241 244 244 238 236 233 233 231 230 228 228 228 229 231 233 233 235 242 246 255 263 270 275 280 292 269 277 270 270 267 264 253 239 243 222 211 224 190 164 55 239 228 289 157 187 176
242 243 237 246 240 237 231 230 231 231 228 225 226 227 228 230 229 232 237 241 248 261 266 268 277 279 267 265 204 340 286 235 241 237 205 213 220 202 148 158 281 38 261 247 297 16 116
248 241 238 237 243 240 234 228 228 228 228 226 224 223 225 226 225 226 226 233 244 259 260 260 250 275 252 245 237 257 166 136 108 160 162 185 182 193 165 188 241 185 210 242 264 53 281
243 246 241 237 239 243 238 230 227 227 226 225 223 220 221 223 220 219 217 214 248 244 225 209 200 212 179 160 165 202 169 142 136 150 149 175 199 221 223 209 229 249 256 271 275 278 296
246 240 234 234 239 240 239 235 235 223 222 224 220 217 217 216 214 211 208 195 202 213 288 249 243 251 245 229 239 226 193 183 171 175 135 144 222 223 191 206 213 236 266 271 281 279 292
246 244 236 231 230 233 238 235 234 232 218 219 218 215 213 209 207 207 212 211 225 269 265 263 234 240 246 235 232 232 203 196 171 171 192 195 193 187 184 178 188 214 231 251 266 307 284
243 241 238 229 228 229 227 237 238 234 217 214 214 212 208 200 200 208 213 200 190 200 276 246 216 235 202 201 252 241 220 201 191 204 164 225 214 175 172 198 193 226 218 239 263 266 269
242 240 238 230 227 226 228 229 234 238 224 206 206 211 208 205 196 200 214 182 182 144 274 154 162 168 166 177 143 161 195 200 194 166 165 209 172 179 212 230 186 248 196 207 224 229 282
240 239 236 235 228 223 226 225 233 233 233 207 201 207 206 200 194 203 194 179 149 128 240 176 140 165 152 220 180 119 153 175 180 137 109 210 178 168 189 146 174 135 126 70 60 224 252
238 237 234 233 232 226 224 223 224 230 239 205 201 203 205 199 190 174 175 148 139 207 168 174 178 166 188 175 180 159 167 167 158 176 219 199 214 189 160 127 107 133 139 243 232 202 256
233 233 232 230 230 228 223 224 222 224 234 201 197 199 203 204 191 183 169 108 208 187 203 153 136 134 182 155 211 166 157 178 212 130 138 180 204 170 169 203 177 179 184 185 234 217 263
228 229 230 227 226 224 219 227 219 223 228 199 192 196 197 200 184 180 161 199 214 178 194 149 103 151 201 197 165 155 183 191 186 185 171 153 181 101 67 116 156 163 187 105 104 125 277
224 223 226 224 222 222 217 220 217 218 224 196 193 188 193 196 182 173 180 214 226 192 164 155 187 194 187 189 165 179 182 168 157 209 182 186 132 347 67 114 50 159 141 135 71 247 258
219 220 221 221 219 223 222 218 216 223 215 193 173 169 187 191 176 178 197 206 196 211 173 169 194 161 188 183 186 168 169 84 156 124 134 135 119 163 161 206 175 150 148 83 191 192 246
214 215 216 217 216 222 220 211 213 212 209 187 168 128 171 179 170 193 205 175 169 180 170 100 132 132 162 159 138 131 154 134 325 182 144 138 118 153 156 38 8 77 164 165 197 207 249
208 209 212 213 214 220 221 215 205 205 207 168 141 112 161 174 177 186 154 147 167 159 177 156 165 152 165 146 146 182 131 28 46 112 150 172 118 124 76 22 17 161 136 109 96 114 222
202 203 204 208 212 216 223 206 217 203 201 175 139 114 143 193 162 170 167 171 139 17 128 109 122 111 143 166 159 169 145 31 26 89 65 91 150 199 236 135 140 175 172 167 154 212 287
192 196 200 204 209 210 215 220 216 207 199 180 151 153 166 182 194 186 170 152 168 166 159 136 93 210 158 142 154 156 105 121 46 40 49 117 208 165 119 134 182 217 221 211 212 231 234
184 192 194 202 206 211 206 205 204 197 196 182 126 148 166 176 154 164 173 184 174 148 157 178 165 171 167 144 192 174 139 167 155 79 87 104 145 107 168 210 247 265 244 225 234 246 257
184 189 195 199 203 212 216 208 220 189 186 165 142 134 134 155 156 164 190 163 172 137 80 147 147 131 136 134 97 111 159 176 170 155 138 140 132 114 210 131 325 275 240 206 210 222 263
184 189 191 196 199 202 197 203 191 189 187 193 149 137 111 156 170 185 154 138 145 170 129 141 140 125 134 124 110 101 85 84 81 57 74 137 120 104 148 154 244 90 23 216 236 257 254
184 188 190 195 185 187 179 176 184 186 187 184 159 157 120 115 142 123 136 118 110 111 115 138 144 148 145 128 90 95 44 78 54 36 285 97 124 129 174 205 323 275 188 156 266 287 285
189 185 182 173 175 170 168 175 174 176 177 168 145 154 114 114 200 144 126 142 131 124 106 125 150 154 153 95 107 154 171 154 162 135 54 116 89 132 148 178 239 173 197 160 147 276 78
143 144 145 151 148 147 148 154 154 150 148 160 135 133 134 108 135 139 122 149 143 126 111 138 148 140 131 113 120 136 158 159 165 164 161 125 88 183 172 213 273 258 141 162 222 315 321
116 120 121 123 124 126 123 122 128 124 119 124 131 140 132 100 112 137 141 139 143 140 139 163 128 160 118 112 140 155 149 181 147 152 167 158 155 179 135 194 249 190 166 258 317 314 318
91 90 95 108 110 103 105 112 125 125 122 154 112 127 128 106 113 119 129 140 158 158 135 161 141 129 145 108 123 118 140 160 151 186 135 183 186 180 199 207 199 194 272 297 311 312 311